Taloyoak, Nunavut

10:02 PM MDT on May 28, 2017 (GMT -0600)
Taloyoak

Weather History for CYYH - January, 2013

Change the Weather History Date:

Monday, January 21, 2013

  Actual Average Record
Temperature  
Mean Temperature -26 °F -  
Max Temperature -22 °F -20 °F 10 °F (2017)
Min Temperature -31 °F -31 °F -52 °F (2011)
Degree Days  
Heating Degree Days 92    
Moisture  
Dew Point -30 °F    
Average Humidity 72    
Maximum Humidity 76    
Minimum Humidity 59    
Precipitation  
Precipitation 0.00 in - - ()
Sea Level Pressure  
Sea Level Pressure 29.86 in    
Wind  
Wind Speed 6 mph ()    
Max Wind Speed 10 mph    
Max Gust Speed -    
Visibility 15.0 miles    
Events Snow    
Averages and records for this station are not official NWS values.
T = Trace of Precipitation, MM = Missing Value Source: Averaged Metar Reports

Daily Weather History Graph

Daily Weather History Graph

Search for Another Location

Airport or City:

Trip Planner

Search our weather history database for the weather conditions in past years. The results will help you decide how hot, cold, wet, or windy it might be!

Date:

Astronomy

Jan. 21, 2013 Rise Set
Actual Time 10:52 AM CST 1:59 PM CST
Civil Twilight 9:06 AM CST 3:45 PM CST
Nautical Twilight 7:43 AM CST 5:09 PM CST
Astronomical Twilight 6:31 AM CST 6:21 PM CST
Moon 9:13 AM CST (1/21) 6:44 AM CST (1/21)
Length of Visible Light 6h 39m
Length of Day
3h 07m
Waxing Gibbous, 75% of the Moon is Illuminated
Jan 21
Waxing Gibbous
Jan 26
Full
Feb 3
Last Quarter
Feb 10
New
Feb 17
First Quarter

Hourly Weather History & Observations

Time (CST) Temp. Windchill Dew Point Humidity Pressure Visibility Wind Dir Wind Speed Gust Speed Precip Events Conditions
12:00 AM -21 °F - -26 °F 62% 29.77 in 15 mi NW 9.2 mph - - Snow Light Snow
12:00 AM -20.2 °F -40.1 °F -25.6 °F 76% 29.77 in 15.0 mi NW 9.2 mph - N/A Snow Light Snow
1:00 AM -22.0 °F -39.4 °F -27.4 °F 76% 29.77 in 15.0 mi NW 6.9 mph - N/A Snow Light Snow
2:00 AM -22.0 °F - -27.4 °F 76% 29.76 in 15.0 mi South 2.3 mph - N/A Snow Light Snow
3:00 AM -23.8 °F -39.8 °F -29.2 °F 76% 29.76 in 15.0 mi SE 5.8 mph - N/A Snow Light Snow
4:00 AM -22.0 °F -35.6 °F -29.2 °F 69% 29.76 in 15.0 mi ESE 4.6 mph - N/A Snow Light Snow
5:00 AM -23.8 °F -44.5 °F -29.2 °F 76% 29.75 in 15.0 mi SE 9.2 mph - N/A Snow Light Snow
6:00 AM -23 °F - -29 °F 59% 29.77 in 15 mi SE 8.1 mph - - Snow Light Snow
6:00 AM -23.8 °F -43.2 °F -29.2 °F 76% 29.77 in 15.0 mi SE 8.1 mph - N/A Snow Light Snow
7:00 AM -23.8 °F -37.7 °F -29.2 °F 76% 29.78 in 15.0 mi SE 4.6 mph - N/A Snow Light Snow
8:00 AM -22.0 °F -42.3 °F -27.4 °F 76% 29.78 in 15.0 mi SSE 9.2 mph - N/A Snow Light Snow
9:00 AM -22.0 °F -42.3 °F -27.4 °F 76% 29.78 in 15.0 mi SSE 9.2 mph - N/A Snow Light Snow
10:00 AM -22.0 °F -43.6 °F -27.4 °F 76% 29.80 in 15.0 mi SSE 10.4 mph - N/A Snow Light Snow
11:00 AM -22.0 °F -41.0 °F -29.2 °F 69% 29.82 in 15.0 mi SSE 8.1 mph - N/A Snow Light Snow
12:00 PM -23 °F - -29 °F 59% 29.84 in 15 mi SSE 8.1 mph - - Snow Light Snow
12:00 PM -23.8 °F -41.6 °F -29.2 °F 76% 29.84 in 15.0 mi SSE 6.9 mph - N/A Snow Light Snow
1:00 PM -23.8 °F -35.0 °F -31.0 °F 69% 29.86 in 15.0 mi SE 3.5 mph - N/A Snow Light Snow
1:54 PM - - - N/A% - 15.0 mi East 2.3 mph - N/A   Mostly Cloudy
2:00 PM -23.8 °F - -31.0 °F 69% 29.88 in 15.0 mi ESE 2.3 mph - N/A   Mostly Cloudy
3:00 PM -25.6 °F -41.9 °F -31.0 °F 76% 29.91 in 15.0 mi SE 5.8 mph - N/A   Mostly Cloudy
4:00 PM -23.8 °F - -29.2 °F 76% 29.94 in 15.0 mi ENE 2.3 mph - N/A   Mostly Cloudy
4:09 PM - - - N/A% - 15.0 mi Calm Calm - N/A   Mostly Cloudy
5:00 PM -25.6 °F - -31.0 °F 76% 29.95 in 15.0 mi Calm Calm - N/A   Mostly Cloudy
6:00 PM -29 °F - -35 °F 59% 29.97 in 15 mi NNE 5.8 mph - - Snow Snow
6:00 PM -29.2 °F -46.2 °F -34.6 °F 75% 29.97 in 15.0 mi NNE 5.8 mph - N/A   Scattered Clouds
7:00 PM -29.2 °F -44.0 °F -34.6 °F 75% 29.99 in 15.0 mi NE 4.6 mph - N/A   Scattered Clouds
8:00 PM -27.4 °F -44.1 °F -34.6 °F 69% 30.01 in 15.0 mi NNE 5.8 mph - N/A   Partly Cloudy
9:00 PM -29.2 °F -51.2 °F -34.6 °F 75% 30.02 in 15.0 mi North 9.2 mph - N/A   Partly Cloudy
10:00 PM -31.0 °F -46.1 °F -36.4 °F 75% 30.04 in 15.0 mi North 4.6 mph - N/A   Partly Cloudy
11:00 PM -27.4 °F -49.0 °F -36.4 °F 62% 30.07 in 15.0 mi NNE 9.2 mph - N/A   Partly Cloudy